Location: Kaikalui
(16.5250°N, 81.1500°E)
Time: 10:08:21
(UTC+00:00)

Cosmos 962 Rocket - Pass Details

Date: 14 April 2026
Orbit: 949 x 999 km, 82.9° (Epoch: 12 May)

Event Time Altitude Azimuth Distance (km) Brightness Sun altitude
Rises 14:24:12 0° 183° (S) 3,697 7.4 -22.6°
Reaches altitude 10° 14:26:43 10° 183° (S) 2,744 6.7 -23.1°
Maximum altitude 14:33:02 89° 271° (W) 985 4.4 -24.6°
Drops below altitude 10° 14:39:16 10° 4° (N) 2,715 7.0 -26.0°
Sets 14:41:46 0° 4° (N) 3,655 7.7 -26.6°
